[[{"header":{"parameterUnit":"m.s-1","parameterCategory":1,"la1":30.2991,"la2":30.254,"lo1":-89.0895,"lo2":-89.0444,"dy":0.0017,"dx":0.0017,"nx":28,"ny":28,"refTime":"2024-07-22T09:00:00:Z","depth":0,"parameterNumber":2,"parameterNumberName":"U-component_of_WINDS"},"data":[0,0,0,0,0,0,0,0,0,0,0,0,0,0,0,0,0,0,0,0,0,0,0,0,0,0,0,0,0,0,0,0,0,0,0,0,0,0,0,0,0,0,0,0,0,0,0,0,0,0,0,0,0,0,0,0,0,0,-0.1042,-0.1041,0,-0.0993,-0.0992,-0.0992,-0.0957,-0.0957,-0.0957,-0.0957,-0.0907,-0.0906,-0.0905,0,0,0,0,0,0,0,0,0,0,0,0,0,-0.1108,-0.1107,-0.1042,-0.1041,-0.1041,-0.0993,-0.0992,-0.0992,-0.0958,-0.0957,-0.0957,-0.0957,-0.0907,-0.0906,-0.0905,0,0,0,0,0,0,0,0,0,0,0,0,0,-0.1071,-0.1107,-0.1042,-0.1018,-0.1015,-0.0993,-0.0992,-0.0991,-0.0958,-0.0957,-0.0957,-0.0956,-0.0908,-0.0906,-0.0905,-0.0902,0,0,-0.09,-0.0899,0,0,0,0,0,0,0,0,-0.1074,-0.1069,-0.1022,-0.102,-0.1017,-0.0981,-0.0997,-0.0962,-0.0958,-0.098,-0.0957,-0.0956,-0.0932,-0.0928,-0.092,-0.09,-0.0898,-0.0899,-0.0898,-0.0898,-0.0897,0,0,0,0,0,0,0,-0.1076,-0.1071,-0.1023,-0.1021,-0.1018,-0.101,-0.1005,-0.099,-0.0959,-0.0978,-0.0975,-0.097,-0.093,-0.0922,-0.0919,-0.0897,-0.0899,-0.0898,-0.0897,-0.0896,-0.0876,-0.0876,0,0,0,0,0,0,-0.1082,-0.1073,-0.1024,-0.1021,-0.1045,-0.1009,-0.1003,-0.0993,-0.0959,-0.0953,-0.097,-0.0968,-0.0925,-0.092,-0.0917,-0.0914,-0.0898,-0.0896,-0.0895,-0.0876,-0.0876,-0.0877,0,0,0,0,0,0,-0.1084,-0.1078,-0.1026,-0.1046,-0.1039,-0.1009,-0.0997,-0.0992,-0.0983,-0.0953,-0.0947,-0.0967,-0.0924,-0.0919,-0.0907,-0.0911,-0.0896,-0.0894,-0.0875,-0.0876,-0.0876,-0.0906,0,0,0,0,0,0,-0.1086,-0.1079,-0.1077,-0.1047,-0.1038,-0.1016,-0.0998,-0.0991,-0.098,-0.0978,-0.0948,-0.0943,-0.0923,-0.0909,-0.0905,-0.0909,-0.0893,-0.0875,-0.0875,-0.0876,-0.0905,-0.0908,-0.0911,0,0,0,0,0,-0.1088,-0.1087,-0.1077,-0.1071,-0.1035,-0.1017,-0.1012,-0.0989,-0.0981,-0.0979,-0.096,-0.0944,-0.0912,-0.0908,-0.0903,-0.0907,-0.0874,-0.0875,-0.0876,-0.0904,-0.0907,-0.0911,0,0,0,0,0,0,-0.1118,-0.1083,-0.1071,-0.106,-0.1042,-0.1011,-0.1008,-0.0993,-0.0977,-0.0975,-0.0948,-0.0941,-0.0933,-0.0918,-0.0915,-0.0904,-0.0891,-0.0891,-0.0914,-0.0917,-0.092,-0.0924,-0.0891,0,0,0,0,0,-0.1124,-0.1111,-0.1081,-0.1074,-0.1066,-0.1039,-0.103,-0.1014,-0.0994,-0.0986,-0.0966,-0.0947,-0.0933,-0.0924,-0.0909,-0.0903,-0.0897,-0.0903,-0.0906,-0.0908,-0.0909,-0.0906,-0.0909,-0.088,-0.088,-0.088,0,0,-0.1135,-0.1114,-0.1107,-0.108,-0.1063,-0.1052,-0.1032,-0.102,-0.1012,-0.0984,-0.0972,-0.0957,-0.0934,-0.0926,-0.0921,-0.0913,-0.0916,-0.0909,-0.0912,-0.0911,-0.0908,-0.091,-0.0913,-0.088,-0.088,-0.088,0,0,-0.1149,-0.1131,-0.1124,-0.1109,-0.1086,-0.1068,-0.1067,-0.1039,-0.1028,-0.1015,-0.0995,-0.0985,-0.096,-0.0946,-0.0935,-0.0947,-0.0932,-0.0943,-0.0958,-0.0956,-0.0958,-0.096,-0.0966,-0.0968,-0.0943,-0.0943,-0.0943,0,-0.1165,-0.1147,-0.1123,-0.1113,-0.1102,-0.1077,-0.1071,-0.1057,-0.103,-0.1024,-0.1016,-0.0986,-0.0969,-0.0958,-0.0961,-0.0953,-0.0952,-0.0946,-0.096,-0.0962,-0.0963,-0.0968,-0.097,-0.0945,-0.0945,-0.0945,-0.0944,0,-0.1169,-0.1157,-0.1154,-0.1129,-0.1118,-0.111,-0.1086,-0.1078,-0.1064,-0.1048,-0.1037,-0.1016,-0.0997,-0.0993,-0.0979,-0.0981,-0.0977,-0.0965,-0.0951,-0.0968,-0.0972,-0.0974,-0.0947,-0.0947,-0.0946,-0.0946,0,0,-0.1199,-0.1163,-0.1162,-0.1152,-0.1125,-0.1116,-0.1107,-0.109,-0.1084,-0.1067,-0.106,-0.1041,-0.1031,-0.1019,-0.1003,-0.1001,-0.1014,-0.0989,-0.0988,-0.0996,-0.1017,-0.1026,-0.1029,-0.1004,-0.1004,-0.1004,-0.1019,0,-0.121,-0.1193,-0.1173,-0.1164,-0.1153,-0.1131,-0.1124,-0.1107,-0.1093,-0.1082,-0.1066,-0.1054,-0.104,-0.1033,-0.103,-0.1013,-0.1018,-0.1011,-0.0998,-0.0998,-0.1005,-0.1031,-0.1041,-0.1055,-0.102,-0.1021,-0.1021,0,-0.1219,-0.1204,-0.1195,-0.1171,-0.1166,-0.116,-0.1143,-0.1133,-0.1115,-0.1105,-0.1093,-0.1076,-0.1068,-0.1056,-0.1045,-0.1041,-0.1035,-0.1026,-0.1026,-0.1024,-0.1011,-0.1031,-0.1059,-0.1062,-0.1023,-0.1023,-0.1023,0,-0.1244,-0.1221,-0.1213,-0.1204,-0.1176,-0.1173,-0.1162,-0.1143,-0.1134,-0.112,-0.1115,-0.1099,-0.1091,-0.1081,-0.1061,-0.1054,-0.1053,-0.1038,-0.1045,-0.1045,-0.1046,-0.1046,-0.1074,-0.104,-0.104,-0.104,-0.104,0,-0.1258,-0.1253,-0.1224,-0.1219,-0.1214,-0.1191,-0.1187,-0.1173,-0.1157,-0.115,-0.1129,-0.1123,-0.1097,-0.1088,-0.1073,-0.1067,-0.1063,-0.1055,-0.1052,-0.1058,-0.1059,-0.1053,-0.1052,-0.1041,-0.1041,-0.1041,-0.104,0,-0.1284,-0.1264,-0.1254,-0.1229,-0.1223,-0.122,-0.12,-0.1195,-0.118,-0.1171,-0.1168,-0.1144,-0.1133,-0.1112,-0.1095,-0.1085,-0.1083,-0.1075,-0.1089,-0.1087,-0.1095,-0.1095,-0.1121,-0.1125,-0.1088,-0.1088,-0.1089,0,-0.1295,-0.1291,-0.1266,-0.126,-0.125,-0.124,-0.1232,-0.121,-0.1202,-0.1183,-0.1181,-0.1168,-0.1157,-0.114,-0.1122,-0.1109,-0.1102,-0.1112,-0.11,-0.1107,-0.1104,-0.1105,-0.1105,-0.1115,-0.1116,-0.1116,-0.1116,0,-0.1316,-0.1307,-0.1296,-0.1282,-0.1273,-0.1261,-0.1248,-0.1244,-0.122,-0.1213,-0.1202,-0.1193,-0.1177,-0.1165,-0.115,-0.1139,-0.1124,-0.1121,-0.1122,-0.1128,-0.1137,-0.1134,-0.1098,-0.112,-0.112,-0.1119,-0.1119,-0.1119,-0.1335,-0.1332,-0.1315,-0.1304,-0.1292,-0.1281,-0.1276,-0.1261,-0.1251,-0.1236,-0.1224,-0.1215,-0.1199,-0.1178,-0.1168,-0.116,-0.1153,-0.1154,-0.1155,-0.1156,-0.1159,-0.1138,-0.1157,-0.1157,-0.1157,-0.1157,-0.1157,0,-0.1357,-0.1345,-0.1335,-0.1319,-0.1311,-0.1298,-0.1284,-0.1278,-0.127,-0.1257,-0.1247,-0.1235,-0.1224,-0.1206,-0.1194,-0.1192,-0.1186,-0.119,-0.119,-0.1188,-0.1165,-0.1166,-0.1196,-0.1196,-0.1196,-0.1196,-0.1196,-0.1196,-0.1367,-0.1361,-0.135,-0.1339,-0.1328,-0.1318,-0.1312,-0.1302,-0.1292,-0.128,-0.1271,-0.126,-0.1245,-0.1232,-0.1222,-0.1217,-0.1215,-0.1222,-0.1215,-0.1193,-0.119,-0.1186,-0.1187,-0.1221,-0.1221,-0.1239,-0.1239,-0.1239]},{"header":{"parameterUnit":"m.s-1","parameterCategory":1,"la1":30.2991,"la2":30.254,"lo1":-89.0895,"lo2":-89.0444,"dy":0.0017,"dx":0.0017,"nx":28,"ny":28,"refTime":"2024-07-22T09:00:00:Z","depth":0,"parameterNumber":3,"parameterNumberName":"V-component_of_WINDS"},"data":[0,0,0,0,0,0,0,0,0,0,0,0,0,0,0,0,0,0,0,0,0,0,0,0,0,0,0,0,0,0,0,0,0,0,0,0,0,0,0,0,0,0,0,0,0,0,0,0,0,0,0,0,0,0,0,0,0,0,3.2449,3.245,0,3.2529,3.253,3.253,3.2508,3.2506,3.2505,3.2503,3.2582,3.2585,3.2589,0,0,0,0,0,0,0,0,0,0,0,0,0,3.227,3.2274,3.2449,3.245,3.2451,3.2529,3.253,3.2531,3.2508,3.2506,3.2504,3.2503,3.258,3.2585,3.2589,0,0,0,0,0,0,0,0,0,0,0,0,0,3.2349,3.2275,3.2448,3.2449,3.245,3.2528,3.253,3.2531,3.2509,3.2506,3.2504,3.2502,3.2579,3.2584,3.259,3.2671,0,0,3.2606,3.2608,0,0,0,0,0,0,0,0,3.2344,3.2355,3.2448,3.2449,3.245,3.2506,3.2495,3.2578,3.2509,3.2486,3.2503,3.2501,3.2558,3.2565,3.2585,3.2675,3.2678,3.2607,3.261,3.2612,3.2614,0,0,0,0,0,0,0,3.2339,3.2352,3.248,3.2449,3.2451,3.2443,3.2452,3.2511,3.2535,3.2488,3.2487,3.2497,3.2558,3.258,3.2587,3.2679,3.2606,3.2611,3.2614,3.2617,3.2835,3.2838,0,0,0,0,0,0,3.2333,3.2347,3.2478,3.2483,3.239,3.2448,3.2458,3.249,3.2534,3.2538,3.2499,3.2495,3.2572,3.2581,3.259,3.2685,3.2612,3.2617,3.262,3.2833,3.2836,3.2838,0,0,0,0,0,0,3.233,3.2345,3.2474,3.2415,3.2431,3.2454,3.2491,3.2493,3.2515,3.2542,3.2546,3.2517,3.2571,3.2582,3.265,3.2687,3.262,3.2624,3.2829,3.2833,3.2837,3.2878,0,0,0,0,0,0,3.2325,3.2344,3.2377,3.2416,3.2434,3.2536,3.2493,3.2497,3.2525,3.2521,3.256,3.2564,3.257,3.2642,3.2656,3.2693,3.2629,3.2826,3.2831,3.2836,3.2873,3.2883,3.2891,0,0,0,0,0,3.2318,3.2386,3.2379,3.2395,3.2476,3.2538,3.2548,3.2554,3.2528,3.256,3.2577,3.2563,3.2682,3.265,3.2664,3.2704,3.2824,3.283,3.2835,3.2869,3.2881,3.289,0,0,0,0,0,0,3.235,3.2391,3.2384,3.2466,3.2499,3.2534,3.2575,3.2567,3.2607,3.2601,3.2606,3.2615,3.2683,3.2701,3.2665,3.2783,3.2749,3.2758,3.2769,3.278,3.2789,3.2782,3.2633,0,0,0,0,0,3.2367,3.2416,3.2448,3.2517,3.2534,3.2552,3.2579,3.258,3.2614,3.2628,3.2649,3.2681,3.2725,3.2754,3.2796,3.2876,3.2882,3.291,3.2919,3.2926,3.2933,3.2972,3.2984,3.2857,3.2857,3.2857,0,0,3.2402,3.243,3.2461,3.2524,3.255,3.2597,3.2564,3.2617,3.2651,3.2635,3.27,3.2717,3.2753,3.2826,3.2859,3.2843,3.297,3.2934,3.2939,3.2942,3.298,3.2991,3.3002,3.2861,3.2861,3.286,0,0,3.2489,3.2517,3.2576,3.2602,3.2641,3.2652,3.2666,3.2702,3.2712,3.2778,3.2766,3.2806,3.2883,3.2908,3.293,3.3023,3.3011,3.3037,3.3082,3.312,3.313,3.3139,3.3168,3.3179,3.3044,3.3045,3.3045,0,3.2527,3.2601,3.2607,3.266,3.2687,3.2675,3.2732,3.2757,3.2807,3.2825,3.2806,3.2899,3.2923,3.2999,3.3022,3.3042,3.3055,3.3032,3.3128,3.3137,3.3145,3.3174,3.3185,3.3047,3.3047,3.3047,3.3046,0,3.2643,3.2694,3.2737,3.2785,3.2817,3.2872,3.2884,3.2915,3.2913,3.2925,3.2989,3.3017,3.3062,3.3081,3.308,3.3157,3.3145,3.3127,3.3092,3.316,3.3186,3.3198,3.3051,3.305,3.3049,3.3049,0,0,3.2754,3.2804,3.2819,3.2839,3.288,3.2918,3.2971,3.3016,3.3041,3.3075,3.3118,3.3181,3.3164,3.319,3.3191,3.3225,3.3292,3.3203,3.3203,3.3215,3.3374,3.3385,3.3398,3.3285,3.3287,3.3289,3.337,0,3.2842,3.2937,3.2942,3.3027,3.3071,3.3059,3.3104,3.3133,3.3145,3.3183,3.3195,3.3239,3.3215,3.323,3.3263,3.3277,3.3323,3.3272,3.3321,3.3323,3.331,3.3412,3.3425,3.35,3.338,3.3382,3.3384,0,3.2959,3.2996,3.3085,3.3115,3.3134,3.3176,3.3215,3.3253,3.3283,3.3289,3.3316,3.3312,3.3363,3.3327,3.3396,3.336,3.3381,3.339,3.3393,3.3396,3.3356,3.3415,3.3524,3.3534,3.3401,3.3399,3.3398,0,3.3025,3.3098,3.316,3.3178,3.3217,3.3245,3.3262,3.3291,3.3316,3.335,3.3366,3.3406,3.3427,3.3457,3.3462,3.3436,3.3529,3.3495,3.3533,3.3533,3.3552,3.355,3.3663,3.357,3.357,3.3569,3.3569,0,3.3122,3.3176,3.319,3.3228,3.3286,3.3291,3.3348,3.3363,3.3388,3.3426,3.3419,3.3454,3.346,3.3496,3.3501,3.3555,3.3565,3.3569,3.3569,3.3568,3.3567,3.358,3.3574,3.3572,3.3572,3.3571,3.3571,0,3.3207,3.3219,3.3284,3.3315,3.3323,3.3365,3.339,3.3424,3.3435,3.3483,3.3494,3.351,3.3552,3.3561,3.3611,3.3613,3.3676,3.3673,3.3666,3.3665,3.3701,3.3696,3.3824,3.384,3.3739,3.374,3.374,0,3.3266,3.3307,3.3341,3.3366,3.3385,3.3426,3.3451,3.3457,3.3483,3.3519,3.3548,3.359,3.3623,3.369,3.3704,3.3742,3.3737,3.3779,3.3742,3.3739,3.3733,3.373,3.3732,3.3785,3.3786,3.3787,3.3788,0,3.3369,3.3372,3.341,3.3449,3.3479,3.351,3.354,3.356,3.3569,3.3598,3.3641,3.3667,3.3717,3.3756,3.3793,3.3808,3.3798,3.38,3.381,3.3808,3.3801,3.3802,3.3682,3.3796,3.3795,3.3795,3.3794,3.3794,3.3441,3.3475,3.3504,3.3545,3.3567,3.3594,3.3626,3.364,3.3676,3.3717,3.3718,3.3764,3.379,3.3838,3.3855,3.389,3.3876,3.3892,3.3895,3.3898,3.39,3.3798,3.3897,3.3897,3.3896,3.3896,3.3896,0,3.3541,3.3558,3.3596,3.3636,3.3667,3.3657,3.3687,3.3714,3.3754,3.378,3.3812,3.3859,3.3897,3.3914,3.395,3.3974,3.397,3.3983,3.398,3.3983,3.3912,3.3898,3.3985,3.3985,3.3985,3.3985,3.3985,3.3985,3.3596,3.3652,3.3658,3.3724,3.374,3.3785,3.3803,3.3826,3.3846,3.3899,3.3931,3.3942,3.3963,3.4,3.4033,3.4037,3.4049,3.4064,3.4065,3.3998,3.3989,3.398,3.3967,3.4067,3.4068,3.4133,3.4134,3.4134]}]]